STARLINK-31676, 59900

Orbit data source: Space-Track

STARLINK-31676, 59900 is a payload satellite owned by SpaceX/Seattle (US) in LEO that was launched on Tue, 28 May 2024 UTC via an FALCON 9 launch vehicle from the Air Force Eastern Test Range (AFETR). Payload-class satellites include a variety of spacecraft equipped with specific instruments for various scientific and technological missions. These include communications satellites like Starlink; space stations such as the ISS; scientific satellites like the Hubble; Earth observation satellites from companies like Planet Labs, Umbra, and HawkEye 360; GPS; miniature CubeSats for education and research; and military/defense satellites.

Loading next visibility...
Identifier
59900, 2024-100R
Orbit
LEO
Country
Flag of USUS
Related business
Manufacturer
SpaceX/Seattle
Mission
Operational Commercial Communications
Bus & Motor
STARLINK V2M, Unknown motor
Mass
730 kg wet, ~700 kg dry
Launch date (UTC)
2024-05-28 (2 years ago)
Launch vehicle
FALCON 9
Launch site
Air Force Eastern Test Range (AFETR)
Object type
Payload
Rocket body
Debris
Shape & HBR
Box + 2 Pan, 17.7 m
Radar Cross Section
33.884 m², Large (>1 m²)

Expand to show TLE details & history
Last TLE update: 11 hours ago

TLE from 11 hours ago
0 STARLINK-31676
1 59900U 24100R   26036.17771940  .00001285  00000-0  56203-4 0  9999
2 59900  43.0003 309.0865 0001437 238.8858 121.1853 15.27582570 96078
Epoch: 2026-02-05T04:15Z
TLE epoch observation values (Epoch: 2026-02-05T04:15:54.956Z)
Latitude
0.00001°
Longitude
109.77384°
Altitude
483.327 km
Speed
7.625 km/s
True Right ascension
20h 36m 20s
True Declination
0° 00' 00"
Sunlit
Object was in daylight at epoch
Visualization orbit readout
Latitude
Unknown
Longitude
Unknown
Altitude
Unknown
Speed
Unknown
Apparent Right ascension
Unknown
Apparent Declination
Unknown
Sunlit
N/A
Visualization observer readout
Local Sidereal Time
17:14:39
Azimuth
Unknown
Elevation
Unknown
Doppler factor
Unknown
Orbital elements
Apogee altitude
485.973 km
Perigee altitude
484 km
Semi-major axis
6,863.124 km
Eccentricity
0.00014
Inclination
43.0003°
RAAN
309.0865°
Arg. of periapsis
238.8858°
True anomaly
121.19939°
Mean anomaly
121.1853°
Eccentric anomaly
121.19234°
Mean motion
3.81734 °/min
Orbital period
94.31 mins
BSTAR
0.000056203
Loading maneuver chart data...
Computing Atmospheric mass density...
Loading historical data...
Loading historical data...
Loading historical data...
Loading historical data...
Loading historical data...
Loading historical data...
Loading historical data...

Documentation

Showing up to 5 results
|